Regional Weather Roundup
Issued by NWS

Home | Current Version | Previous Version | Graphics & Text | Print | Product List | Glossary On
Versions: 1 2 3 4 5 6 7 8 9 10 11 12 13 14 15 16 17 18 19 20 21 22 23 24 25 26 27 28 29 30 31 32 33 34 35 36 37 38 39 40 41 42 43 44 45 46 47 48 49 50
000
ASUS45 KPSR 271610
RWRAZ

ARIZONA REGIONAL HOURLY WEATHER ROUNDUP
NATIONAL WEATHER SERVICE PHOENIX AZ
900 AM MST WED AUG 27 2014

NOTE: FAIR INDICATES FEW OR NO CLOUDS BELOW 12,000 FEET WITH NO
SIGNIFICANT WEATHER AND/OR OBSTRUCTIONS TO VISIBILITY.

AZZ001>003-036-271700-
NORTHWEST ARIZONA

CITY           SKY/WX    TMP DP  RH WIND       PRES   REMARKS
BULLHEAD CITY  SUNNY     88  54  31 N14       30.01R
KINGMAN        MOSUNNY   78  59  51 SE9       30.17R
$$

AZZ004>008-015-016-018-271700-
NORTH CENTRAL ARIZONA

CITY           SKY/WX    TMP DP  RH WIND       PRES   REMARKS
GRAND CANYON   MOSUNNY   63  48  58 S7        30.38S
WILLIAMS       MOSUNNY   64  55  72 S7        30.45R
PRESCOTT       MOSUNNY   66  57  72 CALM      30.30R
FLAGSTAFF      SUNNY     59  52  77 CALM      30.42S
PAYSON         SUNNY     70  55  60 N3        30.32S
PAGE           SUNNY     64  51  62 CALM      30.27R
$$

AZZ009>014-017-271700-
NORTHEAST ARIZONA

CITY           SKY/WX    TMP DP  RH WIND       PRES   REMARKS
WINSLOW        CLOUDY    61  57  87 VRB5      30.33F
SAINT JOHNS    LGT RAIN  60  56  86 W8        30.39R
SHOW LOW       PTSUNNY   57  52  82 E5        30.43S
$$

AZZ023-271700-
GREATER PHOENIX AREA

CITY           SKY/WX    TMP DP  RH WIND       PRES   REMARKS
PHOENIX        MOSUNNY   88  61  40 E12       30.03R
BUCKEYE          N/A     86  66  51 E16       30.02S
GLENDALE       MOSUNNY   88  63  42 CALM      30.05R
LUKE AFB       NOT AVBL
DEER VALLEY    SUNNY     87  60  40 E3        30.05R
SCOTTSDALE     SUNNY     87  61  41 CALM      30.06S
MESA-FALCON    MOSUNNY   84  61  45 N12       30.05R
MESA-GATEWAY   MOSUNNY   86  57  37 CALM      30.07R
CHANDLER       MOSUNNY   86  63  45 NE5       30.05R
$$

AZZ027-028-271700-
SOUTHWEST MARICOPA COUNTY AND PINAL COUNTY

CITY           SKY/WX    TMP DP  RH WIND       PRES   REMARKS
CASA GRANDE    SUNNY     84  66  54 CALM      30.06S
GILA BEND      SUNNY     93  64  38 CALM      30.02R
$$

AZZ503-504-507>509-271700-
SOUTHEAST ARIZONA

CITY           SKY/WX    TMP DP  RH WIND       PRES   REMARKS
TUCSON         MOSUNNY   80  67  64 CALM      30.14S
DAVIS-MONTHAN  SUNNY     81  66  59 SE5       30.13R
RYAN FIELD       N/A     79  68  69 CALM      30.14R
NOGALES        SUNNY     77  65  66 CALM      30.20S
SIERRA VISTA   MOSUNNY   75  63  64 CALM      30.26R
DOUGLAS        SUNNY     74  64  71 NW5       30.23R
SAFFORD        SUNNY     76  64  66 CALM      30.17R
$$

AZZ020-021-025-026-031-271700-
SOUTHWEST ARIZONA

CITY           SKY/WX    TMP DP  RH WIND       PRES   REMARKS
YUMA           SUNNY     93  52  24 NW8       29.95S
$$

CAZ031-033-041-043-047-048-061-271700-
SOUTHERN CALIFORNIA

CITY           SKY/WX    TMP DP  RH WIND       PRES   REMARKS
DOWNTOWN L.A.  SUNNY     78  59  51 CALM      30.02S
L.A. AIRPORT   SUNNY     75  61  61 CALM      30.04R
SAN DIEGO      SUNNY     77  61  57 CALM      30.03R
BURBANK        SUNNY     77  46  33 CALM      30.05R
ONTARIO        SUNNY     76  57  51 CALM      30.06R
RIVERSIDE      SUNNY     78  56  46 CALM      30.06S
PALM SPRINGS   SUNNY     90  48  23 CALM      29.98R
EL CENTRO NAS  SUNNY     93  43  17 W7        29.93S
IMPERIAL       SUNNY     89  55  31 W5        29.93R
BLYTHE         SUNNY     89  55  31 N3        29.96R
NEEDLES        SUNNY     89  58  34 NE5       30.01R
$$

NVZ020-UTZ003-271700-
SOUTHERN NEVADA-UTAH

CITY           SKY/WX    TMP DP  RH WIND       PRES   REMARKS
LAS VEGAS      SUNNY     80  45  28 SE6       30.07R
SALT LAKE CITY PTSUNNY   63  54  72 CALM      30.23R
$$

NMZ009-TXZ055-271700-
NEW MEXICO-WEST TEXAS

CITY           SKY/WX    TMP DP  RH WIND       PRES   REMARKS
ALBUQUERQUE    MOSUNNY   67  55  65 CALM      30.32S
EL PASO        MOSUNNY   74  64  71 N9        30.20S
$$


........................KEY........................
SKY/WX - SKY CONDITION/WEATHER
TMP    - TEMPERATURE IN FAHRENHEIT
DP     - DEW POINT IN FAHRENHEIT
RH     - RELATIVE HUMIDITY IN PERCENT
WIND   - DIRECTION AND SPEED IN MILES PER HOUR (MPH)
VRB    - VARIABLE WIND DIRECTION
PRES   - MEAN SEA LEVEL PRESSURE IN INCHES OF MERCURY
         F - FALLING PRESSURE   R - RISING PRESSURE
         S - STEADY PRESSURE
VSB    - VISIBILITY IN MILES
HX     - HEAT INDEX IN FAHRENHEIT
WCI    - WIND CHILL INDEX IN FAHRENHEIT
TC     - TEMPERATURE IN CELSIUS WHICH IS ALSO KNOWN AS
         TEMPERATURE IN CENTIGRADE
AFB    - AIR FORCE BASE
         LUKE AFB IS LUKE AIR FORCE BASE
         DAVIS-MONTHAN IS DAVIS-MONTHAN AIR FORCE BASE
NAS    - NAVAL AIR STATION
         EL CENTRO NAS IS EL CENTRO NAVAL AIR STATION
N/A    - NOT AVAILABLE



USA.gov is the U.S. government's official web portal to all federal, state and local government web resources and services.